| time (UTC) | temp F | wind direction | speed MPH | gust MPH | rain 1hr in | rain 24hr in | rain mn in | humidity % | barometer mb |
| 20260507213004 | 76 | 286 | 3.0 | 8.0 | 0.00 | 1.58 | 1.58 | 91 | 1012.9 |
| 20260507212504 | 76 | 275 | 4.0 | 8.0 | 0.00 | 1.58 | 1.58 | 91 | 1012.8 |
| 20260507212004 | 76 | 277 | 1.0 | 4.0 | 0.00 | 1.58 | 1.58 | 92 | 1012.7 |
| 20260507211511 | 76 | 283 | 1.0 | 3.0 | 0.00 | 1.58 | 1.58 | 92 | 1012.8 |
| 20260507211006 | 76 | 302 | 1.0 | 4.0 | 0.00 | 1.58 | 1.58 | 91 | 1012.7 |
| 20260507210506 | 76 | 276 | 1.0 | 14.0 | 0.00 | 1.58 | 1.58 | 91 | 1012.8 |
| 20260507210013 | 76 | 272 | 4.0 | 14.0 | 0.00 | 1.58 | 1.58 | 90 | 1012.6 |
| 20260507205503 | 76 | 229 | 3.0 | 7.0 | 0.00 | 1.58 | 1.58 | 91 | 1012.7 |
| 20260507205006 | 76 | 269 | 2.0 | 7.0 | 0.00 | 1.58 | 1.58 | 92 | 1012.7 |
| 20260507204519 | 76 | 224 | 1.0 | 4.0 | 0.00 | 1.58 | 1.58 | 93 | 1012.7 |
| 20260507204007 | 76 | 314 | 0.0 | 4.0 | 0.00 | 1.58 | 1.58 | 94 | 1012.5 |
| 20260507203505 | 75 | 64 | 0.0 | 4.0 | 0.00 | 1.58 | 1.58 | 94 | 1012.6 |
| 20260507203002 | 75 | 236 | 0.0 | 0.0 | 0.00 | 1.58 | 1.58 | 94 | 1012.9 |
| 20260507202502 | 75 | 223 | 0.0 | 0.0 | 0.00 | 1.58 | 1.58 | 94 | 1012.8 |
| 20260507202002 | 75 | 223 | 0.0 | 0.0 | 0.00 | 1.58 | 1.58 | 94 | 1012.9 |
| 20260507201507 | 75 | 223 | 0.0 | 0.0 | 0.00 | 1.58 | 1.58 | 94 | 1012.9 |
| 20260507201002 | 75 | 173 | 0.0 | 0.0 | 0.00 | 1.58 | 1.58 | 94 | 1012.7 |
| 20260507200503 | 74 | 238 | 0.0 | 0.0 | 0.00 | 1.58 | 1.58 | 94 | 1012.7 |
| 20260507200012 | 74 | 182 | 0.0 | 0.0 | 0.00 | 1.58 | 1.58 | 94 | 1013.0 |
| 20260507195504 | 74 | 341 | 0.0 | 0.0 | 0.00 | 1.58 | 1.58 | 94 | 1013.0 |
| 20260507195006 | 74 | 341 | 0.0 | 0.0 | 0.00 | 1.58 | 1.58 | 94 | 1013.0 |
| 20260507194518 | 74 | 341 | 0.0 | 0.0 | 0.00 | 1.58 | 1.58 | 94 | 1013.3 |
| 20260507194006 | 74 | 341 | 0.0 | 4.0 | 0.01 | 1.58 | 1.58 | 94 | 1013.3 |
| 20260507193506 | 74 | 314 | 1.0 | 4.0 | 0.01 | 1.58 | 1.58 | 94 | 1013.4 |
| 20260507193024 | 74 | 344 | 2.0 | 4.0 | 0.01 | 1.58 | 1.58 | 94 | 1013.5 |
| 20260507192502 | 74 | 331 | 0.0 | 2.0 | 0.01 | 1.58 | 1.58 | 93 | 1013.4 |
| 20260507192007 | 74 | 326 | 0.0 | 2.0 | 0.01 | 1.58 | 1.58 | 94 | 1013.1 |
| 20260507191506 | 74 | 314 | 1.0 | 3.0 | 0.01 | 1.58 | 1.58 | 94 | 1013.2 |
| 20260507191001 | 73 | 243 | 0.0 | 3.0 | 0.01 | 1.58 | 1.58 | 94 | 1013.1 |
| 20260507190505 | 73 | 277 | 0.0 | 2.0 | 0.01 | 1.58 | 1.58 | 94 | 1013.3 |
| 20260507190012 | 73 | 332 | 0.0 | 2.0 | 0.01 | 1.58 | 1.58 | 94 | 1013.2 |
| 20260507185502 | 73 | 332 | 1.0 | 3.0 | 0.01 | 1.58 | 1.58 | 94 | 1013.3 |
| 20260507185010 | 73 | 260 | 0.0 | 3.0 | 0.01 | 1.58 | 1.58 | 94 | 1013.4 |
| 20260507184515 | 73 | 300 | 0.0 | 3.0 | 0.01 | 1.58 | 1.58 | 93 | 1013.7 |
| 20260507184003 | 73 | 282 | 0.0 | 2.0 | 0.00 | 1.57 | 1.57 | 94 | 1013.5 |
| 20260507183508 | 73 | 261 | 1.0 | 4.0 | 0.00 | 1.57 | 1.57 | 94 | 1013.8 |
| 20260507183034 | 73 | 243 | 1.0 | 4.0 | 0.00 | 1.57 | 1.57 | 94 | 1013.9 |
| 20260507182507 | 73 | 184 | 0.0 | 3.0 | 0.00 | 1.57 | 1.57 | 94 | 1014.0 |
| 20260507182008 | 73 | 290 | 0.0 | 2.0 | 0.00 | 1.57 | 1.57 | 94 | 1014.2 |
| 20260507181505 | 73 | 291 | 0.0 | 5.0 | 0.00 | 1.57 | 1.57 | 95 | 1014.0 |
| 20260507181004 | 72 | 257 | 0.0 | 5.0 | 0.00 | 1.57 | 1.57 | 94 | 1014.3 |
| 20260507180503 | 72 | 173 | 1.0 | 5.0 | 0.00 | 1.57 | 1.57 | 95 | 1014.3 |
| 20260507180008 | 72 | 236 | 2.0 | 7.0 | 0.00 | 1.57 | 1.57 | 96 | 1014.5 |
| 20260507175505 | 72 | 191 | 1.0 | 8.0 | 0.00 | 1.57 | 1.57 | 95 | 1014.2 |
| 20260507175003 | 71 | 155 | 5.0 | 8.0 | 0.01 | 1.57 | 1.57 | 95 | 1014.0 |
| 20260507174516 | 71 | 184 | 2.0 | 4.0 | 0.02 | 1.57 | 1.57 | 96 | 1014.4 |
| 20260507174006 | 71 | 173 | 2.0 | 7.0 | 0.04 | 1.57 | 1.57 | 95 | 1014.4 |
| 20260507173513 | 70 | 198 | 2.0 | 7.0 | 0.07 | 1.57 | 1.57 | 96 | 1014.4 |
| 20260507173017 | 70 | 169 | 2.0 | 7.0 | 0.08 | 1.57 | 1.57 | 96 | 1014.5 |
| 20260507172507 | 70 | 231 | 2.0 | 5.0 | 0.08 | 1.57 | 1.57 | 96 | 1014.6 |
| 20260507172007 | 70 | 201 | 3.0 | 5.0 | 0.10 | 1.57 | 1.57 | 95 | 1014.3 |
| 20260507171525 | 70 | 202 | 2.0 | 5.0 | 0.24 | 1.57 | 1.57 | 97 | 1014.7 |
| 20260507171008 | 70 | 199 | 1.0 | 4.0 | 0.36 | 1.57 | 1.57 | 97 | 1014.6 |
| 20260507170502 | 69 | 198 | 1.0 | 8.0 | 0.48 | 1.57 | 1.57 | 96 | 1014.7 |
| 20260507170010 | 68 | 230 | 4.0 | 7.0 | 0.52 | 1.57 | 1.57 | 95 | 1014.7 |
| 20260507165502 | 68 | 197 | 1.0 | 3.0 | 0.54 | 1.57 | 1.57 | 95 | 1014.5 |
| 20260507165003 | 68 | 219 | 1.0 | 6.0 | 0.54 | 1.56 | 1.56 | 95 | 1014.2 |
| 20260507164514 | 68 | 245 | 0.0 | 9.0 | 1.01 | 1.55 | 1.55 | 95 | 1014.6 |
| 20260507164003 | 68 | 301 | 4.0 | 9.0 | 1.53 | 1.53 | 1.53 | 94 | 1014.7 |
| 20260507163502 | 68 | 96 | 0.0 | 7.0 | 1.50 | 1.50 | 1.50 | 94 | 1015.5 |
| 20260507163018 | 68 | 213 | 1.0 | 17.0 | 1.49 | 1.49 | 1.49 | 94 | 1015.7 |
| 20260507162507 | 69 | 227 | 6.0 | 22.0 | 1.49 | 1.49 | 1.49 | 93 | 1015.4 |
| 20260507162007 | 70 | 194 | 13.0 | 22.0 | 1.47 | 1.47 | 1.47 | 94 | 1015.0 |
| 20260507161538 | 70 | 219 | 2.0 | 8.0 | 1.33 | 1.33 | 1.33 | 94 | 1015.5 |
| 20260507161008 | 71 | 182 | 2.0 | 8.0 | 1.21 | 1.21 | 1.21 | 94 | 1015.8 |
| 20260507160510 | 71 | 180 | 0.0 | 6.0 | 1.09 | 1.09 | 1.09 | 94 | 1015.4 |
| 20260507160034 | 71 | 210 | 0.0 | 12.0 | 1.04 | 1.04 | 1.04 | 93 | 1014.9 |
| 20260507155503 | 71 | 217 | 3.0 | 19.0 | 1.03 | 1.03 | 1.03 | 93 | 1014.9 |
| 20260507155007 | 72 | 162 | 8.0 | 23.0 | 1.02 | 1.02 | 1.02 | 92 | 1014.6 |
| 20260507154004 | 74 | 302 | 4.0 | 7.0 | 0.00 | 0.00 | 0.00 | 91 | 1016.0 |
| 20260507153504 | 74 | 5 | 1.0 | 3.0 | 0.00 | 0.00 | 0.00 | 90 | 1014.9 |
| 20260507153015 | 74 | 40 | 2.0 | 4.0 | 0.00 | 0.00 | 0.00 | 90 | 1014.4 |
| 20260507152507 | 74 | 85 | 2.0 | 4.0 | 0.00 | 0.00 | 0.00 | 90 | 1014.1 |
| 20260507152008 | 74 | 94 | 1.0 | 3.0 | 0.00 | 0.00 | 0.00 | 89 | 1014.1 |
| 20260507151534 | 74 | 165 | 0.0 | 4.0 | 0.00 | 0.00 | 0.00 | 89 | 1014.4 |
| 20260507151006 | 74 | 80 | 2.0 | 4.0 | 0.00 | 0.00 | 0.00 | 88 | 1014.1 |
| 20260507150507 | 74 | 88 | 2.0 | 4.0 | 0.00 | 0.00 | 0.00 | 88 | 1013.9 |
| 20260507150024 | 74 | 41 | 2.0 | 5.0 | 0.00 | 0.00 | 0.00 | 87 | 1014.2 |
| 20260507145507 | 74 | 38 | 2.0 | 10.0 | 0.00 | 0.00 | 0.00 | 86 | 1014.4 |
| 20260507145010 | 75 | 69 | 3.0 | 10.0 | 0.00 | 0.00 | 0.00 | 84 | 1014.5 |
| 20260507144510 | 76 | 310 | 5.0 | 10.0 | 0.00 | 0.00 | 0.00 | 86 | 1014.6 |
| 20260507144008 | 76 | 317 | 3.0 | 7.0 | 0.00 | 0.00 | 0.00 | 88 | 1014.6 |
| 20260507143505 | 76 | 72 | 2.0 | 6.0 | 0.00 | 0.00 | 0.00 | 88 | 1014.5 |
| 20260507143015 | 76 | 222 | 1.0 | 5.0 | 0.00 | 0.00 | 0.00 | 88 | 1014.3 |
| 20260507142504 | 77 | 138 | 1.0 | 4.0 | 0.00 | 0.00 | 0.00 | 88 | 1014.2 |
| 20260507142008 | 77 | 252 | 1.0 | 4.0 | 0.00 | 0.00 | 0.00 | 88 | 1014.2 |
| 20260507141521 | 77 | 184 | 0.0 | 5.0 | 0.00 | 0.00 | 0.00 | 88 | 1014.3 |
| 20260507141012 | 77 | 104 | 1.0 | 6.0 | 0.00 | 0.00 | 0.00 | 88 | 1014.1 |
| 20260507140509 | 77 | 179 | 3.0 | 6.0 | 0.00 | 0.00 | 0.00 | 88 | 1013.9 |
| 20260507140026 | 77 | 188 | 3.0 | 7.0 | 0.00 | 0.00 | 0.00 | 88 | 1014.0 |
| 20260507135508 | 77 | 159 | 1.0 | 7.0 | 0.00 | 0.00 | 0.00 | 88 | 1014.2 |
| 20260507135009 | 77 | 196 | 1.0 | 5.0 | 0.00 | 0.00 | 0.00 | 88 | 1014.4 |
| 20260507134536 | 77 | 30 | 1.0 | 5.0 | 0.00 | 0.00 | 0.00 | 88 | 1014.5 |
| 20260507134003 | 77 | 234 | 2.0 | 4.0 | 0.00 | 0.00 | 0.00 | 88 | 1014.4 |
| 20260507133505 | 77 | 234 | 1.0 | 4.0 | 0.00 | 0.00 | 0.00 | 89 | 1014.2 |
| 20260507133014 | 76 | 212 | 2.0 | 7.0 | 0.00 | 0.00 | 0.00 | 89 | 1014.4 |
| 20260507132507 | 76 | 240 | 2.0 | 7.0 | 0.00 | 0.00 | 0.00 | 89 | 1014.3 |
| 20260507132010 | 76 | 289 | 1.0 | 3.0 | 0.00 | 0.00 | 0.00 | 90 | 1014.1 |
| 20260507131525 | 76 | 336 | 0.0 | 6.0 | 0.00 | 0.00 | 0.00 | 90 | 1014.3 |
| 20260507131005 | 76 | 227 | 1.0 | 6.0 | 0.00 | 0.00 | 0.00 | 90 | 1014.3 |
| 20260507130508 | 76 | 263 | 1.0 | 7.0 | 0.00 | 0.00 | 0.00 | 90 | 1014.4 |
| 20260507130029 | 75 | 215 | 3.0 | 10.0 | 0.00 | 0.00 | 0.00 | 90 | 1014.2 |
| 20260507125509 | 75 | 185 | 2.0 | 10.0 | 0.00 | 0.00 | 0.00 | 90 | 1014.2 |
| 20260507125007 | 75 | 180 | 4.0 | 10.0 | 0.00 | 0.00 | 0.00 | 90 | 1014.1 |
| 20260507124525 | 75 | 188 | 3.0 | 8.0 | 0.00 | 0.00 | 0.00 | 90 | 1014.1 |
| 20260507124010 | 75 | 265 | 3.0 | 8.0 | 0.00 | 0.00 | 0.00 | 90 | 1014.2 |
| 20260507123510 | 75 | 174 | 3.0 | 7.0 | 0.00 | 0.00 | 0.00 | 90 | 1014.0 |
| 20260507123019 | 75 | 162 | 1.0 | 9.0 | 0.00 | 0.00 | 0.00 | 90 | 1014.0 |
| 20260507122504 | 75 | 189 | 2.0 | 9.0 | 0.00 | 0.00 | 0.00 | 90 | 1014.0 |
| 20260507122012 | 75 | 193 | 2.0 | 8.0 | 0.00 | 0.00 | 0.00 | 90 | 1013.8 |
| 20260507121516 | 75 | 178 | 5.0 | 8.0 | 0.00 | 0.00 | 0.00 | 90 | 1013.8 |
| 20260507121004 | 75 | 194 | 2.0 | 9.0 | 0.00 | 0.00 | 0.00 | 90 | 1013.8 |
| 20260507120509 | 75 | 169 | 2.0 | 10.0 | 0.00 | 0.00 | 0.00 | 90 | 1013.9 |
| 20260507120020 | 75 | 177 | 4.0 | 10.0 | 0.00 | 0.00 | 0.00 | 90 | 1013.8 |
| 20260507115505 | 75 | 198 | 4.0 | 7.0 | 0.00 | 0.00 | 0.00 | 90 | 1013.6 |
| 20260507115007 | 75 | 222 | 3.0 | 11.0 | 0.00 | 0.00 | 0.00 | 90 | 1013.7 |
| 20260507114529 | 75 | 203 | 3.0 | 11.0 | 0.00 | 0.00 | 0.00 | 90 | 1013.6 |
| 20260507114007 | 75 | 239 | 2.0 | 9.0 | 0.00 | 0.00 | 0.00 | 90 | 1013.5 |
| 20260507113504 | 75 | 161 | 2.0 | 9.0 | 0.00 | 0.00 | 0.00 | 90 | 1013.3 |
| 20260507113007 | 75 | 173 | 5.0 | 13.0 | 0.00 | 0.00 | 0.00 | 90 | 1012.9 |
| 20260507112504 | 75 | 202 | 3.0 | 13.0 | 0.00 | 0.00 | 0.00 | 90 | 1012.9 |
| 20260507112004 | 75 | 182 | 3.0 | 14.0 | 0.00 | 0.00 | 0.00 | 90 | 1013.0 |
| 20260507111521 | 75 | 194 | 5.0 | 13.0 | 0.00 | 0.00 | 0.00 | 90 | 1012.9 |
| 20260507111003 | 74 | 180 | 6.0 | 12.0 | 0.00 | 0.00 | 0.00 | 90 | 1012.7 |
| 20260507110506 | 74 | 201 | 3.0 | 10.0 | 0.00 | 0.00 | 0.00 | 90 | 1012.4 |
| 20260507110022 | 74 | 178 | 4.0 | 13.0 | 0.00 | 0.00 | 0.00 | 90 | 1012.4 |
| 20260507105508 | 75 | 222 | 5.0 | 13.0 | 0.00 | 0.00 | 0.00 | 90 | 1012.3 |
| 20260507105005 | 75 | 223 | 4.0 | 12.0 | 0.00 | 0.00 | 0.00 | 90 | 1012.4 |
| 20260507104526 | 75 | 181 | 6.0 | 12.0 | 0.00 | 0.00 | 0.00 | 90 | 1012.3 |
| 20260507104004 | 75 | 197 | 4.0 | 11.0 | 0.00 | 0.00 | 0.00 | 90 | 1012.2 |
| 20260507103504 | 75 | 187 | 5.0 | 11.0 | 0.00 | 0.00 | 0.00 | 90 | 1012.5 |
| 20260507103009 | 75 | 169 | 3.0 | 10.0 | 0.00 | 0.00 | 0.00 | 90 | 1012.4 |
| 20260507102504 | 75 | 188 | 2.0 | 10.0 | 0.00 | 0.00 | 0.00 | 90 | 1012.5 |
| 20260507102004 | 75 | 197 | 1.0 | 10.0 | 0.00 | 0.00 | 0.00 | 90 | 1012.3 |
| 20260507101520 | 75 | 163 | 2.0 | 7.0 | 0.00 | 0.00 | 0.00 | 90 | 1012.3 |
| 20260507101004 | 75 | 208 | 1.0 | 7.0 | 0.00 | 0.00 | 0.00 | 90 | 1012.4 |
| 20260507100504 | 75 | 188 | 2.0 | 7.0 | 0.00 | 0.00 | 0.00 | 90 | 1012.4 |
| 20260507100021 | 75 | 246 | 3.0 | 10.0 | 0.00 | 0.00 | 0.00 | 90 | 1012.4 |
| 20260507095507 | 75 | 184 | 3.0 | 10.0 | 0.00 | 0.00 | 0.00 | 90 | 1012.3 |
| 20260507095007 | 75 | 184 | 1.0 | 5.0 | 0.00 | 0.00 | 0.00 | 90 | 1012.0 |
| 20260507094525 | 75 | 220 | 3.0 | 8.0 | 0.00 | 0.00 | 0.00 | 90 | 1011.9 |
| 20260507094006 | 75 | 197 | 2.0 | 8.0 | 0.00 | 0.00 | 0.00 | 90 | 1011.8 |
| 20260507093508 | 75 | 180 | 2.0 | 10.0 | 0.00 | 0.00 | 0.00 | 90 | 1011.8 |
| 20260507093008 | 75 | 187 | 2.0 | 10.0 | 0.00 | 0.00 | 0.00 | 90 | 1011.7 |
| 20260507092503 | 74 | 223 | 3.0 | 7.0 | 0.00 | 0.00 | 0.00 | 90 | 1011.8 |
| 20260507092003 | 74 | 199 | 2.0 | 6.0 | 0.00 | 0.00 | 0.00 | 90 | 1011.9 |
| 20260507091514 | 74 | 211 | 2.0 | 6.0 | 0.00 | 0.00 | 0.00 | 90 | 1011.9 |
| 20260507091003 | 74 | 246 | 2.0 | 7.0 | 0.00 | 0.00 | 0.00 | 90 | 1011.9 |
| 20260507090504 | 74 | 204 | 3.0 | 8.0 | 0.00 | 0.00 | 0.00 | 90 | 1012.0 |
| 20260507090020 | 74 | 217 | 1.0 | 8.0 | 0.00 | 0.00 | 0.00 | 90 | 1012.1 |
| 20260507085506 | 74 | 247 | 1.0 | 5.0 | 0.00 | 0.00 | 0.00 | 90 | 1012.3 |
| 20260507085007 | 74 | 192 | 2.0 | 7.0 | 0.00 | 0.00 | 0.00 | 90 | 1012.3 |
| 20260507084532 | 74 | 237 | 0.0 | 7.0 | 0.00 | 0.00 | 0.00 | 90 | 1012.3 |
| 20260507084009 | 74 | 233 | 2.0 | 6.0 | 0.00 | 0.00 | 0.00 | 91 | 1012.3 |
| 20260507083508 | 74 | 284 | 1.0 | 11.0 | 0.00 | 0.00 | 0.00 | 91 | 1012.3 |
| 20260507083031 | 74 | 254 | 2.0 | 12.0 | 0.00 | 0.00 | 0.00 | 91 | 1012.3 |
| 20260507082507 | 74 | 165 | 2.0 | 12.0 | 0.00 | 0.00 | 0.00 | 91 | 1012.2 |
| 20260507082004 | 74 | 231 | 3.0 | 8.0 | 0.00 | 0.00 | 0.00 | 91 | 1012.3 |
| 20260507081515 | 74 | 257 | 2.0 | 8.0 | 0.00 | 0.00 | 0.00 | 91 | 1012.4 |
| 20260507081004 | 74 | 217 | 2.0 | 10.0 | 0.00 | 0.00 | 0.00 | 91 | 1012.4 |
| 20260507080506 | 74 | 188 | 4.0 | 10.0 | 0.00 | 0.00 | 0.00 | 91 | 1012.5 |
| 20260507080015 | 74 | 175 | 3.0 | 7.0 | 0.00 | 0.00 | 0.00 | 91 | 1012.4 |
| 20260507075503 | 74 | 173 | 2.0 | 8.0 | 0.00 | 0.00 | 0.00 | 91 | 1012.5 |
| 20260507075006 | 74 | 186 | 3.0 | 9.0 | 0.00 | 0.00 | 0.00 | 91 | 1012.4 |
| 20260507074537 | 74 | 173 | 4.0 | 9.0 | 0.00 | 0.00 | 0.00 | 91 | 1012.5 |
| 20260507074006 | 74 | 198 | 3.0 | 11.0 | 0.00 | 0.00 | 0.00 | 91 | 1012.4 |
| 20260507073507 | 74 | 221 | 4.0 | 11.0 | 0.00 | 0.00 | 0.00 | 91 | 1012.5 |
| 20260507073024 | 74 | 174 | 3.0 | 10.0 | 0.00 | 0.00 | 0.00 | 91 | 1012.6 |
| 20260507072509 | 74 | 204 | 5.0 | 9.0 | 0.00 | 0.00 | 0.00 | 91 | 1012.7 |
| 20260507072011 | 74 | 200 | 1.0 | 8.0 | 0.00 | 0.00 | 0.00 | 91 | 1012.9 |
| 20260507071525 | 74 | 286 | 1.0 | 7.0 | 0.00 | 0.00 | 0.00 | 91 | 1012.9 |
| 20260507071004 | 73 | 319 | 1.0 | 7.0 | 0.00 | 0.00 | 0.00 | 91 | 1013.1 |
| 20260507070504 | 73 | 139 | 2.0 | 6.0 | 0.00 | 0.00 | 0.00 | 91 | 1013.1 |
| 20260507070016 | 73 | 175 | 2.0 | 6.0 | 0.00 | 0.00 | 0.00 | 91 | 1013.1 |
| 20260507065503 | 73 | 190 | 2.0 | 7.0 | 0.00 | 0.00 | 0.00 | 91 | 1013.0 |
| 20260507065004 | 73 | 190 | 3.0 | 11.0 | 0.00 | 0.00 | 0.00 | 91 | 1012.9 |
| 20260507064521 | 73 | 191 | 5.0 | 10.0 | 0.00 | 0.00 | 0.00 | 92 | 1012.8 |
| 20260507064007 | 73 | 209 | 2.0 | 9.0 | 0.00 | 0.00 | 0.00 | 92 | 1012.6 |
| 20260507063508 | 73 | 169 | 5.0 | 12.0 | 0.00 | 0.00 | 0.00 | 92 | 1012.6 |
| 20260507063028 | 73 | 150 | 5.0 | 12.0 | 0.00 | 0.00 | 0.00 | 92 | 1012.7 |
| 20260507062509 | 73 | 207 | 7.0 | 11.0 | 0.00 | 0.00 | 0.00 | 92 | 1012.9 |
| 20260507062011 | 73 | 159 | 6.0 | 11.0 | 0.00 | 0.00 | 0.00 | 92 | 1013.1 |
| 20260507061526 | 73 | 204 | 3.0 | 12.0 | 0.00 | 0.00 | 0.00 | 92 | 1013.1 |
| 20260507061009 | 73 | 171 | 6.0 | 20.0 | 0.00 | 0.00 | 0.00 | 92 | 1013.1 |
| 20260507060509 | 73 | 148 | 8.0 | 20.0 | 0.00 | 0.00 | 0.00 | 92 | 1012.9 |
| 20260507060015 | 73 | 158 | 7.0 | 19.0 | 0.00 | 0.00 | 0.00 | 92 | 1013.0 |
| 20260507055503 | 73 | 155 | 8.0 | 19.0 | 0.00 | 0.00 | 0.00 | 92 | 1012.9 |
| 20260507055004 | 73 | 168 | 9.0 | 19.0 | 0.00 | 0.00 | 0.00 | 92 | 1013.0 |
| 20260507054519 | 73 | 153 | 10.0 | 16.0 | 0.00 | 0.00 | 0.00 | 92 | 1012.9 |
| 20260507054004 | 73 | 175 | 8.0 | 16.0 | 0.00 | 0.00 | 0.00 | 91 | 1013.0 |
| 20260507053505 | 73 | 155 | 8.0 | 13.0 | 0.00 | 0.00 | 0.00 | 91 | 1013.3 |
| 20260507053024 | 73 | 198 | 5.0 | 9.0 | 0.00 | 0.00 | 0.00 | 91 | 1013.5 |
| 20260507052512 | 73 | 180 | 4.0 | 12.0 | 0.00 | 0.00 | 0.00 | 91 | 1013.4 |
| 20260507052008 | 73 | 200 | 5.0 | 13.0 | 0.00 | 0.00 | 0.00 | 91 | 1013.5 |
| 20260507051537 | 73 | 160 | 5.0 | 13.0 | 0.00 | 0.00 | 0.00 | 91 | 1013.4 |
| 20260507051009 | 73 | 172 | 8.0 | 13.0 | 0.00 | 0.00 | 0.00 | 91 | 1013.3 |
| 20260507050506 | 73 | 154 | 7.0 | 12.0 | 0.00 | 0.00 | 0.00 | 91 | 1013.3 |
| 20260507050028 | 73 | 182 | 5.0 | 10.0 | 0.00 | 0.00 | 0.00 | 91 | 1013.5 |
| 20260507045510 | 73 | 157 | 4.0 | 10.0 | 0.00 | 0.00 | 0.00 | 91 | 1013.7 |
| 20260507045004 | 73 | 204 | 4.0 | 10.0 | 0.00 | 0.00 | 0.00 | 91 | 1013.8 |
| 20260507044517 | 73 | 166 | 4.0 | 10.0 | 0.00 | 0.00 | 0.00 | 90 | 1013.7 |
| 20260507044006 | 73 | 199 | 4.0 | 10.0 | 0.00 | 0.00 | 0.00 | 90 | 1013.9 |
| 20260507043506 | 73 | 182 | 5.0 | 10.0 | 0.00 | 0.00 | 0.00 | 90 | 1013.9 |
| 20260507043022 | 73 | 200 | 5.0 | 8.0 | 0.00 | 0.00 | 0.00 | 90 | 1014.0 |
| 20260507042506 | 73 | 208 | 3.0 | 10.0 | 0.00 | 0.00 | 0.00 | 90 | 1014.1 |
| 20260507042007 | 73 | 174 | 6.0 | 14.0 | 0.00 | 0.00 | 0.00 | 90 | 1014.0 |
| 20260507041525 | 73 | 182 | 5.0 | 14.0 | 0.00 | 0.00 | 0.00 | 89 | 1014.1 |
| 20260507041008 | 73 | 196 | 5.0 | 14.0 | 0.00 | 0.00 | 0.00 | 89 | 1014.0 |
| 20260507040509 | 73 | 196 | 7.0 | 14.0 | 0.00 | 0.00 | 0.00 | 89 | 1014.0 |
| 20260507040025 | 73 | 166 | 3.0 | 13.0 | 0.00 | 0.00 | 0.00 | 89 | 1014.0 |
| 20260507035510 | 73 | 175 | 9.0 | 13.0 | 0.00 | 0.00 | 0.00 | 88 | 1013.9 |
| 20260507035010 | 73 | 163 | 7.0 | 12.0 | 0.00 | 0.00 | 0.00 | 88 | 1013.8 |
| 20260507034547 | 73 | 163 | 7.0 | 11.0 | 0.00 | 0.00 | 0.00 | 88 | 1013.8 |
| 20260507034007 | 73 | 168 | 4.0 | 12.0 | 0.00 | 0.00 | 0.00 | 87 | 1014.0 |
| 20260507033504 | 73 | 161 | 6.0 | 15.0 | 0.00 | 0.00 | 0.00 | 87 | 1014.0 |
| 20260507033022 | 73 | 157 | 7.0 | 15.0 | 0.00 | 0.00 | 0.00 | 86 | 1014.1 |
| 20260507032506 | 74 | 180 | 5.0 | 10.0 | 0.00 | 0.00 | 0.00 | 85 | 1014.1 |
| 20260507032006 | 74 | 185 | 5.0 | 11.0 | 0.00 | 0.00 | 0.00 | 84 | 1014.2 |
| 20260507031525 | 74 | 182 | 6.0 | 11.0 | 0.00 | 0.00 | 0.00 | 84 | 1014.2 |
| 20260507031007 | 74 | 174 | 5.0 | 9.0 | 0.00 | 0.00 | 0.00 | 83 | 1014.4 |
| 20260507030506 | 74 | 193 | 5.0 | 11.0 | 0.00 | 0.00 | 0.00 | 82 | 1014.6 |
| 20260507030028 | 74 | 176 | 6.0 | 11.0 | 0.00 | 0.00 | 0.00 | 81 | 1014.5 |
| 20260507025510 | 74 | 169 | 5.0 | 9.0 | 0.00 | 0.00 | 0.00 | 80 | 1014.4 |
| 20260507025009 | 74 | 185 | 5.0 | 11.0 | 0.00 | 0.00 | 0.00 | 79 | 1014.3 |
| 20260507024545 | 74 | 169 | 5.0 | 11.0 | 0.00 | 0.00 | 0.00 | 78 | 1014.2 |
| 20260507024009 | 74 | 204 | 3.0 | 10.0 | 0.00 | 0.00 | 0.00 | 77 | 1014.2 |
| 20260507023508 | 74 | 151 | 4.0 | 10.0 | 0.00 | 0.00 | 0.00 | 76 | 1014.0 |
| 20260507023015 | 75 | 200 | 4.0 | 9.0 | 0.00 | 0.00 | 0.00 | 75 | 1013.9 |
| 20260507022508 | 75 | 186 | 4.0 | 9.0 | 0.00 | 0.00 | 0.00 | 74 | 1014.1 |
| 20260507022004 | 75 | 206 | 5.0 | 9.0 | 0.00 | 0.00 | 0.00 | 73 | 1014.0 |
| 20260507021503 | 75 | 158 | 6.0 | 8.0 | 0.00 | 0.00 | 0.00 | 73 | 1013.7 |
| 20260507021006 | 75 | 199 | 4.0 | 7.0 | 0.00 | 0.00 | 0.00 | 72 | 1013.8 |
| 20260507020503 | 75 | 174 | 3.0 | 9.0 | 0.00 | 0.00 | 0.00 | 71 | 1013.8 |
| 20260507020003 | 75 | 178 | 3.0 | 9.0 | 0.00 | 0.00 | 0.00 | 71 | 1013.7 |
| 20260507015506 | 75 | 171 | 4.0 | 7.0 | 0.00 | 0.00 | 0.00 | 69 | 1013.7 |
| 20260507015004 | 75 | 184 | 5.0 | 6.0 | 0.00 | 0.00 | 0.00 | 69 | 1013.7 |
| 20260507014512 | 75 | 175 | 2.0 | 5.0 | 0.00 | 0.00 | 0.00 | 68 | 1014.0 |
| 20260507014004 | 76 | 198 | 2.0 | 4.0 | 0.00 | 0.00 | 0.00 | 67 | 1013.8 |
| 20260507013509 | 76 | 176 | 1.0 | 6.0 | 0.00 | 0.00 | 0.00 | 67 | 1013.6 |
| 20260507013015 | 76 | 176 | 3.0 | 6.0 | 0.00 | 0.00 | 0.00 | 67 | 1013.6 |
| 20260507012509 | 76 | 170 | 3.0 | 7.0 | 0.00 | 0.00 | 0.00 | 67 | 1013.6 |
| 20260507012007 | 76 | 184 | 2.0 | 7.0 | 0.00 | 0.00 | 0.00 | 67 | 1013.8 |
| 20260507011535 | 76 | 180 | 4.0 | 6.0 | 0.00 | 0.00 | 0.00 | 67 | 1014.1 |
| 20260507011002 | 76 | 180 | 3.0 | 5.0 | 0.00 | 0.00 | 0.00 | 67 | 1014.2 |
| 20260507010503 | 77 | 186 | 2.0 | 4.0 | 0.00 | 0.00 | 0.00 | 67 | 1014.2 |
| 20260507010010 | 77 | 212 | 2.0 | 6.0 | 0.00 | 0.00 | 0.00 | 67 | 1014.1 |
| 20260507005504 | 77 | 193 | 2.0 | 6.0 | 0.00 | 0.00 | 0.00 | 67 | 1014.0 |
| 20260507005003 | 77 | 198 | 2.0 | 8.0 | 0.00 | 0.00 | 0.00 | 67 | 1013.8 |
| 20260507004507 | 77 | 172 | 5.0 | 8.0 | 0.00 | 0.00 | 0.00 | 68 | 1013.7 |
| 20260507004005 | 77 | 202 | 4.0 | 6.0 | 0.00 | 0.00 | 0.00 | 68 | 1013.8 |
| 20260507003505 | 78 | 184 | 3.0 | 6.0 | 0.00 | 0.00 | 0.00 | 69 | 1013.8 |
| 20260507003017 | 78 | 205 | 2.0 | 5.0 | 0.00 | 0.00 | 0.00 | 69 | 1014.1 |
| 20260507002504 | 78 | 202 | 2.0 | 5.0 | 0.00 | 0.00 | 0.00 | 70 | 1014.1 |
| 20260507002007 | 78 | 181 | 2.0 | 8.0 | 0.00 | 0.00 | 0.00 | 69 | 1014.0 |
| 20260507001519 | 79 | 236 | 3.0 | 8.0 | 0.00 | 0.00 | 0.00 | 70 | 1014.1 |
| 20260507001006 | 79 | 193 | 1.0 | 8.0 | 0.00 | 0.00 | 0.00 | 69 | 1014.1 |
| 20260507000508 | 79 | 199 | 2.0 | 9.0 | 0.00 | 0.00 | 0.00 | 69 | 1014.0 |
| 20260507000004 | 79 | 179 | 3.0 | 9.0 | 0.00 | 0.00 | 0.00 | 69 | 1013.9 |
| 20260506235504 | 79 | 254 | 2.0 | 11.0 | 0.00 | 0.00 | 0.00 | 68 | 1013.8 |
| 20260506235003 | 80 | 181 | 4.0 | 11.0 | 0.00 | 0.00 | 0.00 | 68 | 1013.6 |
| 20260506234528 | 80 | 178 | 6.0 | 10.0 | 0.00 | 0.00 | 0.00 | 67 | 1013.3 |
| 20260506234004 | 80 | 205 | 3.0 | 10.0 | 0.00 | 0.00 | 0.00 | 67 | 1013.4 |
| 20260506233505 | 81 | 226 | 6.0 | 10.0 | 0.00 | 0.00 | 0.00 | 66 | 1013.4 |
| 20260506233012 | 81 | 138 | 5.0 | 13.0 | 0.00 | 0.00 | 0.00 | 66 | 1013.4 |
| 20260506232508 | 81 | 190 | 7.0 | 14.0 | 0.00 | 0.00 | 0.00 | 66 | 1013.4 |
| 20260506232007 | 82 | 142 | 6.0 | 15.0 | 0.00 | 0.00 | 0.00 | 66 | 1013.5 |
| 20260506231522 | 82 | 184 | 4.0 | 15.0 | 0.00 | 0.00 | 0.00 | 65 | 1013.4 |
| 20260506231005 | 82 | 268 | 3.0 | 12.0 | 0.00 | 0.00 | 0.00 | 65 | 1013.4 |
| 20260506230506 | 82 | 98 | 2.0 | 13.0 | 0.00 | 0.00 | 0.00 | 66 | 1013.5 |
| 20260506230020 | 83 | 198 | 7.0 | 14.0 | 0.00 | 0.00 | 0.00 | 65 | 1013.5 |
| 20260506225506 | 83 | 194 | 5.0 | 16.0 | 0.00 | 0.00 | 0.00 | 64 | 1013.5 |
| 20260506225003 | 83 | 190 | 7.0 | 16.0 | 0.00 | 0.00 | 0.00 | 64 | 1013.4 |
| 20260506224506 | 83 | 157 | 5.0 | 12.0 | 0.00 | 0.00 | 0.00 | 63 | 1013.3 |
| 20260506224002 | 84 | 238 | 3.0 | 12.0 | 0.00 | 0.00 | 0.00 | 63 | 1013.2 |
| 20260506223503 | 84 | 207 | 5.0 | 12.0 | 0.00 | 0.00 | 0.00 | 62 | 1013.2 |
| 20260506223012 | 84 | 126 | 2.0 | 10.0 | 0.00 | 0.00 | 0.00 | 62 | 1013.3 |
| 20260506222504 | 84 | 225 | 3.0 | 16.0 | 0.00 | 0.00 | 0.00 | 62 | 1013.3 |
| 20260506222004 | 84 | 183 | 7.0 | 17.0 | 0.00 | 0.00 | 0.00 | 61 | 1013.2 |
| 20260506221518 | 84 | 202 | 9.0 | 17.0 | 0.00 | 0.00 | 0.00 | 61 | 1013.1 |
| 20260506221007 | 84 | 246 | 8.0 | 16.0 | 0.00 | 0.00 | 0.00 | 60 | 1013.1 |
| 20260506220507 | 84 | 212 | 4.0 | 11.0 | 0.00 | 0.00 | 0.00 | 61 | 1013.1 |
| 20260506220024 | 84 | 177 | 5.0 | 10.0 | 0.00 | 0.00 | 0.00 | 60 | 1013.4 |
| 20260506215506 | 84 | 196 | 5.0 | 12.0 | 0.00 | 0.00 | 0.00 | 62 | 1013.6 |
| 20260506215008 | 83 | 240 | 7.0 | 12.0 | 0.00 | 0.00 | 0.00 | 61 | 1013.5 |
| 20260506214515 | 83 | 165 | 7.0 | 18.0 | 0.00 | 0.00 | 0.00 | 61 | 1013.7 |
| 20260506214002 | 83 | 206 | 8.0 | 18.0 | 0.00 | 0.00 | 0.00 | 60 | 1013.7 |
| 20260506213503 | 84 | 218 | 3.0 | 12.0 | 0.00 | 0.00 | 0.00 | 60 | 1013.8 |